[[{"header":{"parameterUnit":"m.s-1","parameterCategory":1,"la1":30.2991,"la2":30.254,"lo1":-89.0895,"lo2":-89.0444,"dy":0.0017,"dx":0.0017,"nx":28,"ny":28,"refTime":"2024-05-06T09:00:00:Z","depth":0,"parameterNumber":2,"parameterNumberName":"U-component_of_WINDS"},"data":[0,0,0,0,0,0,0,0,0,0,0,0,0,0,0,0,0,0,0,0,0,0,0,0,0,0,0,0,0,0,0,0,0,0,0,0,0,0,0,0,0,0,0,0,0,0,0,0,0,0,0,0,0,0,0,0,0,0,-0.2812,-0.2813,0,-0.288,-0.2881,-0.2881,-0.2912,-0.2911,-0.2911,-0.2911,-0.2984,-0.2986,-0.2988,0,0,0,0,0,0,0,0,0,0,0,0,0,-0.2713,-0.2714,-0.2812,-0.2813,-0.2814,-0.288,-0.2881,-0.2882,-0.2912,-0.2911,-0.2911,-0.2911,-0.2983,-0.2985,-0.2988,0,0,0,0,0,0,0,0,0,0,0,0,0,-0.2766,-0.2715,-0.2812,-0.2837,-0.2839,-0.288,-0.2881,-0.2882,-0.2912,-0.2911,-0.2911,-0.2911,-0.2982,-0.2985,-0.2988,-0.301,0,0,-0.2997,-0.2999,0,0,0,0,0,0,0,0,-0.2763,-0.2769,-0.2832,-0.2835,-0.2838,-0.2887,-0.2872,-0.2925,-0.2912,-0.2884,-0.2911,-0.2911,-0.2952,-0.2957,-0.297,-0.3013,-0.3016,-0.2998,-0.2999,-0.3001,-0.3002,0,0,0,0,0,0,0,-0.2759,-0.2767,-0.2839,-0.2833,-0.2837,-0.2846,-0.2853,-0.2882,-0.2918,-0.2887,-0.2889,-0.2896,-0.2953,-0.2967,-0.2972,-0.3017,-0.2998,-0.3,-0.3002,-0.3003,-0.3084,-0.3084,0,0,0,0,0,0,-0.2751,-0.2763,-0.2837,-0.2841,-0.2799,-0.2848,-0.2856,-0.2872,-0.2918,-0.2925,-0.2897,-0.2898,-0.2962,-0.2969,-0.2975,-0.3005,-0.3001,-0.3004,-0.3005,-0.3084,-0.3084,-0.3084,0,0,0,0,0,0,-0.2748,-0.2757,-0.2834,-0.2803,-0.2813,-0.2849,-0.2867,-0.2873,-0.2887,-0.2925,-0.2932,-0.2904,-0.2963,-0.2971,-0.3001,-0.3008,-0.3005,-0.3008,-0.3083,-0.3084,-0.3084,-0.3064,0,0,0,0,0,0,-0.2745,-0.2756,-0.2763,-0.2803,-0.2815,-0.2858,-0.2867,-0.2874,-0.2892,-0.2894,-0.2934,-0.2941,-0.2963,-0.2997,-0.3004,-0.3012,-0.301,-0.3083,-0.3083,-0.3084,-0.3064,-0.3064,-0.3063,0,0,0,0,0,-0.2742,-0.2755,-0.2764,-0.2772,-0.2825,-0.2858,-0.2865,-0.289,-0.2892,-0.2901,-0.2926,-0.2939,-0.3006,-0.2999,-0.3008,-0.3017,-0.3082,-0.3083,-0.3084,-0.3064,-0.3064,-0.3063,0,0,0,0,0,0,-0.2716,-0.2761,-0.277,-0.2797,-0.2823,-0.2863,-0.2874,-0.2888,-0.2915,-0.2916,-0.2946,-0.2955,-0.2984,-0.3003,-0.2996,-0.3042,-0.3046,-0.3048,-0.3028,-0.3027,-0.3027,-0.3022,-0.3013,0,0,0,0,0,-0.2713,-0.2735,-0.2774,-0.2793,-0.2806,-0.2838,-0.2853,-0.287,-0.2899,-0.2911,-0.2938,-0.2967,-0.2995,-0.3012,-0.3039,-0.3067,-0.3078,-0.3078,-0.3077,-0.3077,-0.3079,-0.3097,-0.3098,-0.3087,-0.3087,-0.3087,0,0,-0.2708,-0.2735,-0.2747,-0.2789,-0.2811,-0.2835,-0.2847,-0.2871,-0.289,-0.2915,-0.2945,-0.2967,-0.3001,-0.3031,-0.3045,-0.3048,-0.3084,-0.3078,-0.3077,-0.3079,-0.3098,-0.3099,-0.31,-0.3087,-0.3087,-0.3087,0,0,-0.2711,-0.2732,-0.2752,-0.2775,-0.2809,-0.283,-0.2835,-0.2873,-0.2888,-0.2919,-0.2939,-0.2962,-0.3008,-0.3033,-0.3051,-0.3065,-0.3079,-0.3073,-0.3071,-0.3088,-0.3089,-0.309,-0.3097,-0.3099,-0.3075,-0.3075,-0.3075,0,-0.27,-0.2735,-0.276,-0.2784,-0.2803,-0.2826,-0.2847,-0.2868,-0.291,-0.2923,-0.2925,-0.2986,-0.301,-0.3047,-0.305,-0.3064,-0.3072,-0.3069,-0.3087,-0.3088,-0.309,-0.3096,-0.3098,-0.3074,-0.3074,-0.3074,-0.3074,0,-0.2721,-0.2746,-0.2758,-0.2797,-0.2817,-0.2839,-0.2869,-0.2887,-0.2902,-0.2924,-0.2957,-0.2987,-0.3022,-0.3032,-0.3048,-0.3072,-0.3073,-0.3081,-0.3085,-0.3089,-0.3096,-0.3099,-0.3073,-0.3073,-0.3073,-0.3074,0,0,-0.2708,-0.2762,-0.2766,-0.2785,-0.2825,-0.2846,-0.287,-0.2903,-0.2919,-0.2947,-0.2969,-0.3009,-0.3017,-0.3038,-0.3057,-0.3072,-0.3084,-0.3079,-0.308,-0.3079,-0.3114,-0.3108,-0.3111,-0.3093,-0.3094,-0.3094,-0.3112,0,-0.2717,-0.276,-0.2785,-0.2818,-0.2843,-0.2866,-0.2888,-0.2916,-0.2938,-0.2962,-0.2987,-0.3015,-0.3023,-0.3036,-0.3052,-0.3079,-0.3091,-0.3078,-0.3116,-0.3117,-0.3107,-0.3114,-0.3108,-0.3122,-0.3114,-0.3115,-0.3115,0,-0.2733,-0.2761,-0.2796,-0.2836,-0.2847,-0.2865,-0.2899,-0.2922,-0.2955,-0.297,-0.2994,-0.3013,-0.3042,-0.3044,-0.3085,-0.3075,-0.3093,-0.3109,-0.311,-0.3115,-0.3116,-0.312,-0.3128,-0.313,-0.3119,-0.3119,-0.3119,0,-0.2721,-0.2768,-0.2796,-0.2811,-0.2857,-0.287,-0.289,-0.2923,-0.2942,-0.2973,-0.2986,-0.3019,-0.3038,-0.3064,-0.3092,-0.3091,-0.3131,-0.3135,-0.3145,-0.3145,-0.3153,-0.3152,-0.3164,-0.3163,-0.3163,-0.3163,-0.3163,0,-0.2729,-0.275,-0.2791,-0.2809,-0.2834,-0.2863,-0.2888,-0.291,-0.294,-0.2963,-0.2986,-0.3008,-0.3044,-0.307,-0.3093,-0.3124,-0.3132,-0.3146,-0.3152,-0.3145,-0.3143,-0.3157,-0.3157,-0.3163,-0.3163,-0.3163,-0.3163,0,-0.272,-0.2748,-0.2781,-0.2822,-0.2833,-0.285,-0.2886,-0.2905,-0.2928,-0.2958,-0.2967,-0.3003,-0.3036,-0.3067,-0.3111,-0.3127,-0.3159,-0.3166,-0.3147,-0.315,-0.3159,-0.3159,-0.3181,-0.3187,-0.3181,-0.3181,-0.3181,0,-0.2723,-0.274,-0.2784,-0.28,-0.282,-0.2847,-0.2867,-0.2897,-0.2917,-0.2957,-0.2972,-0.3006,-0.3035,-0.3087,-0.3119,-0.3154,-0.3162,-0.3168,-0.3168,-0.316,-0.3164,-0.3163,-0.3165,-0.3167,-0.3167,-0.3167,-0.3167,0,-0.2726,-0.274,-0.2767,-0.28,-0.2823,-0.285,-0.2879,-0.2892,-0.2928,-0.2949,-0.2983,-0.3006,-0.3051,-0.3086,-0.3124,-0.3147,-0.3164,-0.3167,-0.3172,-0.3164,-0.3153,-0.3161,-0.3147,-0.3166,-0.3167,-0.3167,-0.3167,-0.3167,-0.2724,-0.2741,-0.2775,-0.2805,-0.283,-0.2856,-0.2876,-0.2902,-0.293,-0.2969,-0.2986,-0.302,-0.3056,-0.3109,-0.3131,-0.316,-0.3164,-0.317,-0.3171,-0.3173,-0.3172,-0.3148,-0.3167,-0.3167,-0.3167,-0.3167,-0.3167,0,-0.273,-0.2753,-0.278,-0.2819,-0.2843,-0.2856,-0.2889,-0.2909,-0.2939,-0.297,-0.2998,-0.3038,-0.3073,-0.3108,-0.3144,-0.3161,-0.317,-0.3169,-0.3169,-0.3174,-0.3166,-0.3159,-0.3162,-0.3162,-0.3162,-0.3162,-0.3162,-0.3162,-0.2735,-0.2765,-0.2783,-0.2826,-0.2849,-0.2883,-0.2901,-0.2926,-0.2951,-0.2994,-0.3022,-0.3045,-0.3078,-0.3118,-0.3151,-0.316,-0.3173,-0.3171,-0.3183,-0.3174,-0.3175,-0.3175,-0.3168,-0.3173,-0.3173,-0.3189,-0.319,-0.319]},{"header":{"parameterUnit":"m.s-1","parameterCategory":1,"la1":30.2991,"la2":30.254,"lo1":-89.0895,"lo2":-89.0444,"dy":0.0017,"dx":0.0017,"nx":28,"ny":28,"refTime":"2024-05-06T09:00:00:Z","depth":0,"parameterNumber":3,"parameterNumberName":"V-component_of_WINDS"},"data":[0,0,0,0,0,0,0,0,0,0,0,0,0,0,0,0,0,0,0,0,0,0,0,0,0,0,0,0,0,0,0,0,0,0,0,0,0,0,0,0,0,0,0,0,0,0,0,0,0,0,0,0,0,0,0,0,0,0,5.8271,5.8272,0,5.829,5.829,5.829,5.8211,5.8208,5.8206,5.8204,5.822,5.8222,5.8225,0,0,0,0,0,0,0,0,0,0,0,0,0,5.8164,5.8166,5.8271,5.8272,5.8272,5.829,5.829,5.829,5.8211,5.8208,5.8205,5.8203,5.8219,5.8222,5.8225,0,0,0,0,0,0,0,0,0,0,0,0,0,5.8199,5.8167,5.8271,5.8235,5.8231,5.829,5.829,5.829,5.8212,5.8208,5.8205,5.8201,5.8218,5.8222,5.8226,5.8319,0,0,5.8237,5.8239,0,0,0,0,0,0,0,0,5.8197,5.8203,5.824,5.8237,5.8234,5.8244,5.8258,5.83,5.8213,5.8219,5.8204,5.82,5.8231,5.8233,5.8244,5.832,5.8321,5.8238,5.824,5.8242,5.8243,0,0,0,0,0,0,0,5.8195,5.8202,5.8278,5.824,5.8237,5.8216,5.8217,5.8265,5.8244,5.8218,5.8213,5.8216,5.8228,5.8241,5.8244,5.8321,5.8238,5.8241,5.8243,5.8245,5.8473,5.8476,0,0,0,0,0,0,5.8198,5.8201,5.8278,5.8279,5.8207,5.8221,5.8222,5.8244,5.8243,5.824,5.8219,5.8212,5.8236,5.824,5.8244,5.8353,5.8242,5.8245,5.8248,5.8469,5.8474,5.8478,0,0,0,0,0,0,5.8196,5.8206,5.8277,5.8238,5.8246,5.8226,5.8252,5.8247,5.8259,5.8244,5.8239,5.8236,5.8233,5.8239,5.8301,5.8352,5.8247,5.8251,5.8465,5.8471,5.8476,5.8572,0,0,0,0,0,0,5.8193,5.8205,5.8242,5.824,5.8248,5.8335,5.8255,5.825,5.8266,5.8258,5.8258,5.8255,5.8231,5.8296,5.8305,5.8356,5.8254,5.846,5.8467,5.8474,5.8564,5.858,5.8593,0,0,0,0,0,5.819,5.8268,5.8244,5.8254,5.8293,5.8338,5.8343,5.8314,5.8271,5.8306,5.8296,5.8255,5.8346,5.8303,5.8312,5.8365,5.8457,5.8465,5.8473,5.8557,5.8577,5.8593,0,0,0,0,0,0,5.8275,5.8267,5.824,5.832,5.8331,5.8325,5.8369,5.8336,5.8358,5.8349,5.8311,5.8312,5.8381,5.8379,5.8332,5.8455,5.8393,5.8404,5.8454,5.8472,5.8487,5.8485,5.8257,0,0,0,0,0,5.8303,5.8342,5.8332,5.8403,5.841,5.8389,5.8407,5.8384,5.8393,5.8396,5.8391,5.84,5.8431,5.8451,5.8478,5.8563,5.8562,5.8604,5.8619,5.8631,5.8641,5.8685,5.8703,5.8505,5.8505,5.8505,0,0,5.8362,5.8362,5.8388,5.842,5.8425,5.8464,5.8393,5.8437,5.8465,5.8403,5.8461,5.8458,5.8466,5.8539,5.8572,5.854,5.8695,5.8642,5.8652,5.8655,5.8695,5.8714,5.8731,5.8511,5.851,5.8509,0,0,5.8488,5.8493,5.8552,5.8559,5.8568,5.8554,5.8568,5.8567,5.8563,5.8621,5.8575,5.8607,5.866,5.8668,5.8678,5.8807,5.877,5.8817,5.8894,5.8937,5.8953,5.8967,5.9012,5.9028,5.8827,5.8827,5.8827,0,5.8559,5.8617,5.8587,5.8634,5.8649,5.8595,5.8654,5.8662,5.8679,5.869,5.8655,5.8721,5.8722,5.8796,5.8828,5.8839,5.8853,5.8816,5.8953,5.8967,5.8979,5.9021,5.9039,5.8833,5.8832,5.8831,5.8831,0,5.8704,5.8745,5.8791,5.881,5.883,5.8884,5.886,5.8884,5.8859,5.8848,5.8907,5.8907,5.8933,5.8949,5.8925,5.902,5.9,5.896,5.8897,5.9004,5.9043,5.9059,5.8841,5.8839,5.8837,5.8835,0,0,5.8884,5.8885,5.8903,5.891,5.8917,5.8947,5.8997,5.9023,5.9044,5.9058,5.9098,5.9144,5.9107,5.9119,5.9096,5.9134,5.9235,5.9089,5.9088,5.9115,5.9338,5.9367,5.9387,5.921,5.9213,5.9216,5.9337,0,5.9007,5.9094,5.9067,5.9154,5.9191,5.914,5.9184,5.9192,5.9183,5.9211,5.9201,5.9234,5.9183,5.919,5.9225,5.9215,5.9279,5.9206,5.9246,5.9248,5.9245,5.9408,5.9439,5.9553,5.9352,5.9355,5.9357,0,5.9162,5.9183,5.9274,5.9273,5.9287,5.9327,5.9348,5.9377,5.9385,5.9375,5.9389,5.9357,5.9405,5.9343,5.9408,5.936,5.9374,5.9372,5.9376,5.9377,5.9308,5.9413,5.9589,5.9606,5.9381,5.9379,5.9377,0,5.9283,5.9334,5.9394,5.9402,5.9404,5.9432,5.9434,5.9438,5.9455,5.9474,5.9484,5.9508,5.9521,5.9539,5.9514,5.9472,5.9583,5.9519,5.9575,5.9576,5.96,5.9599,5.9781,5.9612,5.9612,5.9611,5.9611,0,5.9423,5.948,5.9449,5.9486,5.9548,5.9517,5.9579,5.9575,5.9579,5.9613,5.9571,5.9604,5.957,5.9599,5.958,5.9637,5.9643,5.9636,5.963,5.9639,5.964,5.9648,5.9639,5.9616,5.9615,5.9614,5.9613,0,5.9568,5.955,5.9612,5.9608,5.9609,5.9655,5.965,5.9684,5.9672,5.9716,5.9725,5.9706,5.9739,5.9716,5.9749,5.9736,5.9809,5.9793,5.9807,5.9802,5.986,5.9855,6.0052,6.0076,5.9893,5.9895,5.9896,0,5.9658,5.9701,5.9702,5.9723,5.9727,5.9761,5.9778,5.9748,5.9768,5.978,5.9812,5.9841,5.9863,5.9918,5.9906,5.9931,5.9914,5.9982,5.9917,5.9925,5.9914,5.9911,5.9915,5.9994,5.9996,5.9998,6.0,0,5.982,5.9808,5.9835,5.9859,5.9881,5.9899,5.9912,5.9931,5.9901,5.9925,5.9959,5.9976,6.001,6.0039,6.0059,6.0059,6.0025,6.002,6.0034,6.0044,6.005,6.0047,5.9842,6.0015,6.0014,6.0013,6.0012,6.0011,5.9939,5.9975,5.9981,6.0012,6.0019,6.0033,6.0064,6.0056,6.0084,6.0109,6.009,6.013,6.0135,6.0159,6.0164,6.0194,6.0166,6.0187,6.0192,6.0197,6.0205,6.0046,6.0197,6.0197,6.0197,6.0196,6.0196,0,6.0097,6.0099,6.0128,6.0149,6.0173,6.0139,6.0152,6.0175,6.021,6.0219,6.0241,6.028,6.0308,6.0299,6.0324,6.0349,6.0334,6.0357,6.0354,6.0355,6.0229,6.0214,6.0369,6.0369,6.0369,6.0369,6.0369,6.0369,6.0182,6.024,6.023,6.0291,6.0291,6.033,6.034,6.0352,6.0359,6.0404,6.0427,6.0421,6.0422,6.0447,6.0471,6.0468,6.0478,6.0507,6.0498,6.0381,6.0364,6.0347,6.0333,6.051,6.051,6.0621,6.0622,6.0623]}]]